TimeMST,TemperatureF,Dew PointF,Humidity,Sea Level PressureIn,VisibilityMPH,Wind Direction,Wind SpeedMPH,Gust SpeedMPH,PrecipitationIn,Events,Conditions,WindDirDegrees,DateUTC
12:48 AM,27.0,19.9,75,30.30,-9999.0,NNW,9.2,-,N/A,,Unknown,330,2013-02-27 07:48:00
1:48 AM,26.1,19.0,75,30.31,-9999.0,NW,10.4,-,N/A,,Unknown,310,2013-02-27 08:48:00
2:48 AM,24.1,18.0,77,30.32,-9999.0,NW,8.1,-,N/A,,Unknown,320,2013-02-27 09:48:00
3:48 AM,23.0,19.0,85,30.32,-9999.0,NW,4.6,-,N/A,,Unknown,310,2013-02-27 10:48:00
4:48 AM,17.1,14.0,88,30.33,-9999.0,West,4.6,-,N/A,,Unknown,280,2013-02-27 11:48:00
5:48 AM,18.0,15.1,88,30.35,-9999.0,WNW,5.8,-,N/A,,Unknown,290,2013-02-27 12:48:00
6:48 AM,14.0,12.0,92,30.37,-9999.0,Calm,Calm,-,N/A,,Unknown,0,2013-02-27 13:48:00
7:48 AM,18.0,15.1,88,30.36,-9999.0,Calm,Calm,-,N/A,,Unknown,0,2013-02-27 14:48:00
8:48 AM,21.9,19.0,89,30.36,-9999.0,Calm,Calm,-,N/A,,Unknown,0,2013-02-27 15:48:00
9:48 AM,26.1,19.0,75,30.35,-9999.0,Calm,Calm,-,N/A,,Unknown,0,2013-02-27 16:48:00
10:48 AM,28.9,19.9,69,30.34,-9999.0,Calm,Calm,-,N/A,,Unknown,0,2013-02-27 17:48:00
11:48 AM,30.9,19.9,64,30.34,-9999.0,Calm,Calm,-,N/A,,Unknown,0,2013-02-27 18:48:00
12:48 PM,36.0,21.0,55,30.30,-9999.0,Variable,4.6,-,N/A,,Unknown,0,2013-02-27 19:48:00
1:48 PM,37.0,21.0,52,30.29,-9999.0,Variable,3.5,-,N/A,,Unknown,0,2013-02-27 20:48:00
2:48 PM,39.0,21.0,49,30.27,-9999.0,Calm,Calm,-,N/A,,Unknown,0,2013-02-27 21:48:00
3:48 PM,41.0,19.9,43,30.27,-9999.0,Calm,Calm,-,N/A,,Unknown,0,2013-02-27 22:48:00
4:48 PM,39.0,21.0,49,30.27,-9999.0,East,6.9,-,N/A,,Unknown,90,2013-02-27 23:48:00
5:48 PM,33.1,21.0,61,30.28,-9999.0,East,9.2,-,N/A,,Unknown,100,2013-02-28 00:48:00
6:48 PM,30.9,21.0,67,30.29,-9999.0,East,10.4,-,N/A,,Unknown,100,2013-02-28 01:48:00
7:48 PM,30.9,21.9,69,30.29,-9999.0,ESE,4.6,-,N/A,,Unknown,120,2013-02-28 02:48:00
8:48 PM,30.0,21.9,72,30.28,-9999.0,East,3.5,-,N/A,,Unknown,100,2013-02-28 03:48:00
9:48 PM,28.9,21.9,75,30.27,-9999.0,East,5.8,-,N/A,,Unknown,80,2013-02-28 04:48:00
10:48 PM,28.0,21.0,75,30.27,-9999.0,East,5.8,-,N/A,,Unknown,80,2013-02-28 05:48:00
11:48 PM,28.0,21.9,78,30.25,-9999.0,East,3.5,-,N/A,,Unknown,90,2013-02-28 06:48:00